timestamp,surface_pressure_avg,surface_temp_avg,battery_voltage,lat,long
2021-12-22 00:09:01+00:00,333.3780000000001,4.95,12.65,47.84626,-54.09684
2021-12-22 00:19:00+00:00,329.0363,4.94,12.65,47.84626,-54.09684
2021-12-22 00:29:00+00:00,326.8046,4.93,12.65,47.84626,-54.09684
2021-12-22 00:39:00+00:00,329.3646,4.9,12.65,47.84626,-54.09684
2021-12-22 00:49:00+00:00,327.7047,4.9,12.65,47.84626,-54.09684
2021-12-22 00:59:00+00:00,321.7463,4.9,12.65,47.84626,-54.09684
2021-12-22 01:09:00+00:00,322.4363,4.89,12.65,47.84626,-54.09684
2021-12-22 01:19:00+00:00,324.8729,4.88,12.65,47.84626,-54.09684
2021-12-22 01:29:00+00:00,316.8347,4.8,12.65,47.84626,-54.09684
2021-12-22 01:39:00+00:00,317.328,4.8,12.65,47.84626,-54.09684
2021-12-22 01:49:00+00:00,325.143,4.8,12.65,47.84626,-54.09684
2021-12-22 01:59:00+00:00,321.2446,4.8,12.65,47.84626,-54.09684
2021-12-22 02:09:00+00:00,310.4097,4.8,12.65,47.84626,-54.09684
2021-12-22 02:19:01+00:00,314.7612,4.8,12.57,47.84626,-54.09684
2021-12-22 02:29:01+00:00,313.96299999999997,4.8,12.57,47.84626,-54.09684
2021-12-22 02:39:01+00:00,304.4396,4.8,12.57,47.84626,-54.09684
2021-12-22 02:49:01+00:00,304.7847,4.8,12.57,47.84626,-54.09684
2021-12-22 02:59:01+00:00,311.1413,4.8,12.57,47.84626,-54.09684
2021-12-22 03:09:01+00:00,299.5129,4.8,12.57,47.84626,-54.09684
2021-12-22 03:19:00+00:00,290.723,4.8,12.57,47.84626,-54.09684
2021-12-22 03:29:00+00:00,292.5497,4.8,12.57,47.84626,-54.09684
2021-12-22 03:39:00+00:00,288.9981,4.8,12.57,47.84626,-54.09684
2021-12-22 03:49:00+00:00,276.3664,4.79,12.57,47.84626,-54.09684
2021-12-22 03:59:00+00:00,272.7264,4.78,12.57,47.84626,-54.09684
2021-12-22 04:09:00+00:00,271.5681,4.79,12.57,47.84626,-54.09684
2021-12-22 04:19:00+00:00,257.4014,4.78,12.57,47.84626,-54.09684
2021-12-22 04:29:00+00:00,248.9197,4.75,12.57,47.84626,-54.09684
2021-12-22 04:39:00+00:00,255.7297,4.75,12.57,47.84626,-54.09684
2021-12-22 04:49:00+00:00,251.4381,4.7,12.57,47.84626,-54.09684
2021-12-22 04:59:00+00:00,235.5181,4.6,12.57,47.84626,-54.09684
2021-12-22 05:09:00+00:00,231.7514,4.6,12.57,47.84626,-54.09684
2021-12-22 05:19:00+00:00,234.8664,4.59,12.57,47.84626,-54.09684
2021-12-22 05:29:00+00:00,226.6914,4.5,12.57,47.84626,-54.09684
2021-12-22 05:39:00+00:00,213.3464,4.5,12.57,47.84626,-54.09684
2021-12-22 05:49:00+00:00,212.6931,4.5,12.57,47.84626,-54.09684
2021-12-22 05:59:00+00:00,213.2114,4.5,12.57,47.84626,-54.09684
2021-12-22 06:09:00+00:00,205.9814,4.5,12.57,47.84626,-54.09684
2021-12-22 06:19:00+00:00,201.2048,4.5,12.57,47.84626,-54.09684
2021-12-22 06:29:00+00:00,202.0314,4.5,12.57,47.84626,-54.09684
2021-12-22 06:39:00+00:00,198.3148,4.5,12.57,47.84626,-54.09684
2021-12-22 06:49:00+00:00,191.5348,4.49,12.57,47.84626,-54.09684
2021-12-22 06:59:00+00:00,188.4998,4.42,12.57,47.84626,-54.09684
2021-12-22 07:09:00+00:00,190.4265,4.4,12.57,47.84626,-54.09684
2021-12-22 07:19:00+00:00,189.2715,4.4,12.57,47.84626,-54.09684
2021-12-22 07:29:00+00:00,181.0931,4.4,12.57,47.84626,-54.09684
2021-12-22 07:39:00+00:00,182.8165,4.4,12.57,47.84626,-54.09684
2021-12-22 07:49:00+00:00,196.3381,4.4,12.57,47.84626,-54.09684
2021-12-22 07:59:00+00:00,199.8148,4.4,12.57,47.84626,-54.09684
2021-12-22 08:09:00+00:00,199.6748,4.4,12.57,47.84626,-54.09684
2021-12-22 08:19:01+00:00,206.3681,4.4,12.57,47.84626,-54.09684
2021-12-22 08:29:01+00:00,213.8464,4.4,12.57,47.84626,-54.09684
2021-12-22 08:39:01+00:00,217.7631,4.38,12.57,47.84626,-54.09684
2021-12-22 08:49:01+00:00,218.0481,4.3,12.57,47.84626,-54.09684
2021-12-22 08:59:01+00:00,221.8297,4.3,12.57,47.84626,-54.09684
2021-12-22 09:09:01+00:00,227.0764,4.3,12.57,47.84626,-54.09684
2021-12-22 09:19:00+00:00,231.5247,4.3,12.57,47.84626,-54.09684
2021-12-22 09:29:00+00:00,237.7664,4.29,12.57,47.84626,-54.09684
2021-12-22 09:39:00+00:00,243.7164,4.3,12.57,47.84626,-54.09684
2021-12-22 09:49:00+00:00,251.3481,4.3,12.57,47.84626,-54.09684
2021-12-22 09:59:00+00:00,255.3747,4.3,12.57,47.84626,-54.09684
2021-12-22 10:09:00+00:00,256.9931,4.27,12.57,47.84626,-54.09684
2021-12-22 10:19:00+00:00,262.4048,4.27,12.57,47.84626,-54.09684
2021-12-22 10:29:00+00:00,273.5164,4.28,12.57,47.84626,-54.09684
2021-12-22 10:39:00+00:00,282.4763,4.29,12.57,47.84626,-54.09684
2021-12-22 10:49:00+00:00,287.093,4.2,12.57,47.84626,-54.09684
2021-12-22 10:59:00+00:00,292.3147,4.2,12.57,47.84626,-54.09684
2021-12-22 11:09:00+00:00,301.613,4.2,12.57,47.84626,-54.09684
2021-12-22 11:19:01+00:00,311.238,4.24,12.57,47.84626,-54.09684
2021-12-22 11:29:01+00:00,321.2747,4.3,12.57,47.84626,-54.09684
2021-12-22 11:39:01+00:00,331.2464,4.3,12.57,47.84626,-54.09684
2021-12-22 11:49:01+00:00,338.5613,4.34,12.57,47.84626,-54.09684
2021-12-22 11:59:01+00:00,349.4913,4.37,12.57,47.84626,-54.09684
2021-12-22 12:09:01+00:00,357.7863,4.37,12.57,47.84626,-54.09684
2021-12-22 12:19:00+00:00,357.663,4.39,13.76,47.84626,-54.09684
2021-12-22 12:29:00+00:00,361.8113,4.38,13.76,47.84626,-54.09684
2021-12-22 12:39:00+00:00,365.39300000000003,4.33,13.76,47.84626,-54.09684
2021-12-22 12:49:00+00:00,365.5312,4.35,13.76,47.84626,-54.09684
2021-12-22 12:59:00+00:00,368.70300000000003,4.37,13.76,47.84626,-54.09684
2021-12-22 13:09:00+00:00,374.2278,4.38,13.76,47.84626,-54.09684
2021-12-22 13:19:00+00:00,374.3846,4.38,14.8,47.84626,-54.09684
2021-12-22 13:29:00+00:00,369.8796,4.35,14.8,47.84626,-54.09684
2021-12-22 13:39:00+00:00,367.8097,4.35,14.8,47.84626,-54.09684
2021-12-22 13:49:00+00:00,373.2162,4.35,14.8,47.84626,-54.09684
2021-12-22 13:59:00+00:00,374.9379,4.34,14.8,47.84626,-54.09684
2021-12-22 14:09:00+00:00,381.2496,4.34,14.8,47.84626,-54.09684
2021-12-22 14:19:00+00:00,381.1362,4.35,14.8,47.84626,-54.09684
2021-12-22 14:29:00+00:00,375.1396,4.34,14.8,47.84626,-54.09684
2021-12-22 14:39:00+00:00,376.6746,4.33,14.8,47.84626,-54.09684
2021-12-22 14:49:00+00:00,380.6629,4.3,14.8,47.84626,-54.09684
2021-12-22 14:59:00+00:00,377.168,4.3,14.8,47.84626,-54.09684
2021-12-22 15:09:00+00:00,371.593,4.23,14.8,47.84626,-54.09684
2021-12-22 15:19:01+00:00,370.6779,4.2,14.72,47.84626,-54.09684
2021-12-22 15:29:01+00:00,364.673,4.2,14.72,47.84626,-54.09684
2021-12-22 15:39:01+00:00,359.7713,4.2,14.72,47.84626,-54.09684
2021-12-22 15:49:01+00:00,353.48800000000006,4.2,14.72,47.84626,-54.09684
2021-12-22 15:59:01+00:00,341.7863,4.2,14.72,47.84626,-54.09684
2021-12-22 16:09:01+00:00,334.5997,4.2,14.72,47.84626,-54.09684
2021-12-22 16:19:01+00:00,330.0446,4.2,14.64,47.84626,-54.09684
2021-12-22 16:29:01+00:00,322.3596,4.2,14.64,47.84626,-54.09684
2021-12-22 16:39:01+00:00,316.2747,4.2,14.64,47.84626,-54.09684
2021-12-22 16:49:01+00:00,314.0229,4.2,14.64,47.84626,-54.09684
2021-12-22 16:59:01+00:00,305.0031,4.2,14.64,47.84626,-54.09684
2021-12-22 17:09:01+00:00,296.9714,4.2,14.64,47.84626,-54.09684
2021-12-22 17:19:01+00:00,289.7247,4.2,14.56,47.84626,-54.09684
2021-12-22 17:29:01+00:00,281.3997,4.2,14.56,47.84626,-54.09684
2021-12-22 17:39:01+00:00,273.178,4.2,14.56,47.84626,-54.09684
2021-12-22 17:49:01+00:00,269.6414,4.2,14.56,47.84626,-54.09684
2021-12-22 17:59:01+00:00,265.2263,4.27,14.56,47.84626,-54.09684
2021-12-22 18:09:01+00:00,257.2314,4.23,14.56,47.84626,-54.09684
2021-12-22 18:19:00+00:00,256.4164,4.26,14.4,47.84626,-54.09684
2021-12-22 18:29:00+00:00,253.7281,4.3,14.4,47.84626,-54.09684
2021-12-22 18:39:00+00:00,243.2615,4.3,14.4,47.84626,-54.09684
2021-12-22 18:49:00+00:00,234.4915,4.28,14.4,47.84626,-54.09684
2021-12-22 18:59:00+00:00,237.6831,4.3,14.4,47.84626,-54.09684
2021-12-22 19:09:00+00:00,239.4197,4.3,14.4,47.84626,-54.09684
2021-12-22 19:19:01+00:00,228.9281,4.3,13.84,47.84626,-54.09684
2021-12-22 19:29:01+00:00,220.2014,4.3,13.84,47.84626,-54.09684
2021-12-22 19:39:01+00:00,226.2481,4.3,13.84,47.84626,-54.09684
2021-12-22 19:49:01+00:00,226.7231,4.3,13.84,47.84626,-54.09684
2021-12-22 19:59:01+00:00,222.2681,4.28,13.84,47.84626,-54.09684
2021-12-22 20:09:01+00:00,222.6581,4.21,13.84,47.84626,-54.09684
2021-12-22 20:19:00+00:00,227.4981,4.2,13.37,47.84626,-54.09684
2021-12-22 20:29:00+00:00,228.9931,3.9,13.37,47.84626,-54.09684
2021-12-22 20:39:00+00:00,230.5847,3.8,13.37,47.84626,-54.09684
2021-12-22 20:49:00+00:00,235.1831,3.8,13.37,47.84626,-54.09684
2021-12-22 20:59:00+00:00,239.7665,3.8,13.37,47.84626,-54.09684
2021-12-22 21:09:00+00:00,244.8931,3.8,13.37,47.84626,-54.09684
2021-12-22 21:19:00+00:00,245.9281,3.8,13.05,47.84626,-54.09684
2021-12-22 21:29:00+00:00,245.9698,3.86,13.05,47.84626,-54.09684
2021-12-22 21:39:00+00:00,249.5714,3.9,13.05,47.84626,-54.09684
2021-12-22 21:49:00+00:00,255.0714,3.93,13.05,47.84626,-54.09684
2021-12-22 21:59:00+00:00,260.7431,4.0,13.05,47.84626,-54.09684
2021-12-22 22:09:00+00:00,264.4081,4.09,13.05,47.84626,-54.09684
2021-12-22 22:19:00+00:00,268.6948,4.1,12.65,47.84626,-54.09684
2021-12-22 22:29:00+00:00,272.8064,4.1,12.65,47.84626,-54.09684
2021-12-22 22:39:00+00:00,279.6014,4.11,12.65,47.84626,-54.09684
2021-12-22 22:49:00+00:00,282.1747,4.14,12.65,47.84626,-54.09684
2021-12-22 22:59:00+00:00,283.8514,4.15,12.65,47.84626,-54.09684
2021-12-22 23:09:00+00:00,287.243,4.13,12.65,47.84626,-54.09684
2021-12-22 23:19:00+00:00,294.9064,4.12,12.57,47.84626,-54.09684
2021-12-22 23:29:00+00:00,299.873,4.1,12.57,47.84626,-54.09684
2021-12-22 23:39:00+00:00,302.7614,4.1,12.57,47.84626,-54.09684
2021-12-22 23:49:00+00:00,310.8947,4.1,12.57,47.84626,-54.09684
2021-12-22 23:59:00+00:00,319.6863,4.1,12.57,47.84626,-54.09684
